Time,TemperatureF,DewpointF,PressureIn,WindDirection,WindDirectionDegrees,WindSpeedMPH,WindSpeedGustMPH,Humidity,HourlyPrecipIn,Conditions,Clouds,dailyrainin,SoftwareType,DateUTC
2013-04-19 00:04:00,61.0,61.0,29.61,NW,315,6.0,15.0,100,0.11,,,0.02,Weather View 32 v70,2013-04-19 04:04:00,
2013-04-19 00:09:00,60.0,60.0,29.61,WNW,292,7.0,15.0,100,0.12,,,0.03,Weather View 32 v70,2013-04-19 04:09:00,
2013-04-19 00:14:00,59.0,59.0,29.60,WNW,292,2.0,15.0,100,0.13,,,0.04,Weather View 32 v70,2013-04-19 04:14:00,
2013-04-19 00:19:00,58.0,58.0,29.59,West,270,4.0,15.0,100,0.13,,,0.04,Weather View 32 v70,2013-04-19 04:19:00,
2013-04-19 00:24:00,57.0,57.0,29.59,WNW,292,15.0,15.0,100,0.14,,,0.05,Weather View 32 v70,2013-04-19 04:24:00,
2013-04-19 00:29:00,56.0,56.0,29.61,West,270,3.0,16.0,100,0.17,,,0.08,Weather View 32 v70,2013-04-19 04:29:00,
2013-04-19 00:34:00,55.0,55.0,29.62,NW,315,5.0,16.0,100,0.19,,,0.11,Weather View 32 v70,2013-04-19 04:34:00,
2013-04-19 00:39:00,55.0,55.0,29.59,West,270,7.0,16.0,100,0.21,,,0.13,Weather View 32 v70,2013-04-19 04:39:00,
2013-04-19 00:44:00,54.0,54.0,29.58,NW,315,3.0,16.0,100,0.21,,,0.14,Weather View 32 v70,2013-04-19 04:44:00,
2013-04-19 00:49:00,54.0,54.0,29.58,NNW,337,2.0,16.0,100,0.22,,,0.15,Weather View 32 v70,2013-04-19 04:49:00,
2013-04-19 00:59:00,54.0,54.0,29.59,West,270,4.0,16.0,100,0.18,,,0.18,Weather View 32 v70,2013-04-19 04:59:00,
2013-04-19 01:04:00,53.0,53.0,29.60,WSW,247,5.0,16.0,100,0.18,,,0.20,Weather View 32 v70,2013-04-19 05:04:00,
2013-04-19 01:09:00,52.0,52.0,29.61,West,270,7.0,16.0,100,0.20,,,0.23,Weather View 32 v70,2013-04-19 05:09:00,
2013-04-19 01:14:00,52.0,52.0,29.60,WNW,292,4.0,16.0,100,0.21,,,0.25,Weather View 32 v70,2013-04-19 05:14:00,
2013-04-19 01:19:00,51.0,51.0,29.59,WSW,247,6.0,16.0,100,0.22,,,0.26,Weather View 32 v70,2013-04-19 05:19:00,
2013-04-19 01:24:00,51.0,51.0,29.59,West,270,5.0,16.0,100,0.24,,,0.29,Weather View 32 v70,2013-04-19 05:24:00,
2013-04-19 01:34:00,50.0,50.0,29.59,North,360,5.0,15.0,100,0.23,,,0.34,Weather View 32 v70,2013-04-19 05:34:00,
2013-04-19 01:39:00,50.0,50.0,29.59,WNW,292,4.0,15.0,100,0.25,,,0.38,Weather View 32 v70,2013-04-19 05:39:00,
2013-04-19 01:49:00,49.0,49.0,29.59,WNW,292,6.0,15.0,100,0.30,,,0.45,Weather View 32 v70,2013-04-19 05:49:00,
2013-04-19 01:54:00,49.0,49.0,29.59,West,270,6.0,15.0,100,0.29,,,0.46,Weather View 32 v70,2013-04-19 05:54:00,
2013-04-19 01:59:00,49.0,49.0,29.59,West,270,6.0,13.0,100,0.30,,,0.48,Weather View 32 v70,2013-04-19 05:59:00,
2013-04-19 02:04:00,49.0,49.0,29.60,WNW,292,2.0,13.0,100,0.30,,,0.50,Weather View 32 v70,2013-04-19 06:04:00,
2013-04-19 02:14:00,48.0,48.0,29.59,North,360,5.0,12.0,100,0.30,,,0.55,Weather View 32 v70,2013-04-19 06:14:00,
2013-04-19 02:19:00,47.0,47.0,29.59,WNW,292,4.0,12.0,100,0.31,,,0.57,Weather View 32 v70,2013-04-19 06:19:00,
2013-04-19 02:24:00,47.0,47.0,29.59,WNW,292,10.0,12.0,100,0.29,,,0.58,Weather View 32 v70,2013-04-19 06:24:00,
2013-04-19 02:29:00,46.0,46.0,29.60,West,270,4.0,12.0,100,0.27,,,0.59,Weather View 32 v70,2013-04-19 06:29:00,
2013-04-19 02:34:00,46.0,46.0,29.60,West,270,7.0,12.0,100,0.26,,,0.60,Weather View 32 v70,2013-04-19 06:34:00,
2013-04-19 02:42:00,46.0,46.0,29.60,West,270,8.0,12.0,100,0.23,,,0.61,Weather View 32 v70,2013-04-19 06:42:00,
2013-04-19 02:49:00,45.0,45.0,29.60,West,270,6.0,16.0,100,0.20,,,0.65,Weather View 32 v70,2013-04-19 06:49:00,
2013-04-19 02:54:00,45.0,45.0,29.57,West,270,7.0,17.0,100,0.20,,,0.66,Weather View 32 v70,2013-04-19 06:54:00,
2013-04-19 02:59:00,45.0,45.0,29.58,West,270,3.0,17.0,100,0.20,,,0.68,Weather View 32 v70,2013-04-19 06:59:00,
2013-04-19 03:09:00,45.0,45.0,29.57,West,270,6.0,17.0,100,0.14,,,0.68,Weather View 32 v70,2013-04-19 07:09:00,
2013-04-19 03:14:00,45.0,45.0,29.58,West,270,10.0,17.0,100,0.14,,,0.69,Weather View 32 v70,2013-04-19 07:14:00,
2013-04-19 03:19:00,45.0,45.0,29.57,NW,315,9.0,17.0,100,0.12,,,0.69,Weather View 32 v70,2013-04-19 07:19:00,
2013-04-19 03:24:00,44.0,44.0,29.57,NW,315,7.0,17.0,100,0.12,,,0.70,Weather View 32 v70,2013-04-19 07:24:00,
2013-04-19 03:34:00,44.0,44.0,29.57,WSW,247,5.0,17.0,100,0.14,,,0.74,Weather View 32 v70,2013-04-19 07:34:00,
2013-04-19 03:39:00,44.0,44.0,29.58,WNW,292,5.0,17.0,100,0.13,,,0.74,Weather View 32 v70,2013-04-19 07:39:00,
2013-04-19 03:44:00,44.0,44.0,29.58,WNW,292,8.0,17.0,100,0.12,,,0.75,Weather View 32 v70,2013-04-19 07:44:00,
2013-04-19 03:49:00,44.0,44.0,29.59,NW,315,6.0,17.0,100,0.11,,,0.76,Weather View 32 v70,2013-04-19 07:49:00,
2013-04-19 03:54:00,44.0,44.0,29.58,West,270,7.0,15.0,100,0.10,,,0.76,Weather View 32 v70,2013-04-19 07:54:00,
2013-04-19 03:59:00,43.0,43.0,29.59,WNW,292,6.0,17.0,100,0.08,,,0.76,Weather View 32 v70,2013-04-19 07:59:00,
2013-04-19 04:09:00,43.0,43.0,29.60,West,270,6.0,17.0,100,0.08,,,0.76,Weather View 32 v70,2013-04-19 08:09:00,
2013-04-19 04:14:00,43.0,43.0,29.60,WNW,292,6.0,17.0,100,0.07,,,0.76,Weather View 32 v70,2013-04-19 08:14:00,
2013-04-19 04:19:00,42.0,42.0,29.60,NW,315,9.0,17.0,100,0.07,,,0.76,Weather View 32 v70,2013-04-19 08:19:00,
2013-04-19 04:24:00,42.0,42.0,29.61,WNW,292,6.0,17.0,100,0.06,,,0.76,Weather View 32 v70,2013-04-19 08:24:00,
2013-04-19 04:34:00,42.0,42.0,29.59,West,270,7.0,17.0,100,0.02,,,0.76,Weather View 32 v70,2013-04-19 08:34:00,
2013-04-19 04:39:00,42.0,42.0,29.60,West,270,6.0,17.0,100,0.02,,,0.76,Weather View 32 v70,2013-04-19 08:39:00,
2013-04-19 04:44:00,42.0,42.0,29.60,West,270,0.0,17.0,100,0.01,,,0.76,Weather View 32 v70,2013-04-19 08:44:00,
2013-04-19 04:49:00,42.0,42.0,29.61,NW,315,4.0,17.0,100,0.00,,,0.76,Weather View 32 v70,2013-04-19 08:49:00,
2013-04-19 04:59:00,42.0,42.0,29.61,WSW,247,7.0,15.0,100,0.00,,,0.76,Weather View 32 v70,2013-04-19 08:59:00,
2013-04-19 05:04:00,42.0,42.0,29.61,NW,315,5.0,15.0,100,0.00,,,0.76,Weather View 32 v70,2013-04-19 09:04:00,
2013-04-19 05:09:00,42.0,42.0,29.61,NW,315,9.0,14.0,100,0.00,,,0.76,Weather View 32 v70,2013-04-19 09:09:00,
2013-04-19 05:14:00,42.0,42.0,29.61,SSW,202,1.0,14.0,100,0.00,,,0.76,Weather View 32 v70,2013-04-19 09:14:00,
2013-04-19 05:19:00,41.0,41.0,29.61,NW,315,10.0,16.0,100,0.00,,,0.76,Weather View 32 v70,2013-04-19 09:19:00,
2013-04-19 05:24:00,41.0,41.0,29.61,SW,225,5.0,16.0,100,0.00,,,0.76,Weather View 32 v70,2013-04-19 09:24:00,
2013-04-19 05:29:00,41.0,41.0,29.62,WNW,292,3.0,16.0,100,0.00,,,0.76,Weather View 32 v70,2013-04-19 09:29:00,
2013-04-19 05:39:00,41.0,41.0,29.63,West,270,2.0,16.0,100,0.00,,,0.76,Weather View 32 v70,2013-04-19 09:39:00,
2013-04-19 05:44:00,41.0,41.0,29.62,WNW,292,8.0,16.0,100,0.00,,,0.76,Weather View 32 v70,2013-04-19 09:44:00,
2013-04-19 05:49:00,41.0,41.0,29.63,NW,315,6.0,16.0,100,0.00,,,0.76,Weather View 32 v70,2013-04-19 09:49:00,
2013-04-19 05:54:00,41.0,41.0,29.63,WNW,292,9.0,16.0,100,0.01,,,0.77,Weather View 32 v70,2013-04-19 09:54:00,
2013-04-19 05:59:00,41.0,41.0,29.64,WNW,292,2.0,16.0,100,0.01,,,0.77,Weather View 32 v70,2013-04-19 09:59:00,
2013-04-19 06:09:00,41.0,41.0,29.63,West,270,9.0,16.0,100,0.01,,,0.77,Weather View 32 v70,2013-04-19 10:09:00,
2013-04-19 06:14:00,41.0,41.0,29.63,WNW,292,10.0,16.0,100,0.01,,,0.77,Weather View 32 v70,2013-04-19 10:14:00,
2013-04-19 06:19:00,41.0,41.0,29.64,NW,315,2.0,16.0,100,0.01,,,0.77,Weather View 32 v70,2013-04-19 10:19:00,
2013-04-19 06:24:00,41.0,41.0,29.64,NW,315,9.0,20.0,100,0.01,,,0.77,Weather View 32 v70,2013-04-19 10:24:00,
2013-04-19 06:34:00,40.0,40.0,29.65,West,270,4.0,20.0,100,0.01,,,0.77,Weather View 32 v70,2013-04-19 10:34:00,
2013-04-19 06:39:00,40.0,40.0,29.65,West,270,7.0,20.0,100,0.01,,,0.77,Weather View 32 v70,2013-04-19 10:39:00,
2013-04-19 06:44:00,40.0,39.7,29.65,WSW,247,5.0,20.0,99,0.01,,,0.77,Weather View 32 v70,2013-04-19 10:44:00,
2013-04-19 06:49:00,40.0,39.5,29.66,West,270,7.0,20.0,98,0.01,,,0.77,Weather View 32 v70,2013-04-19 10:49:00,
2013-04-19 06:54:00,40.0,40.0,29.67,West,270,6.0,20.0,100,0.00,,,0.77,Weather View 32 v70,2013-04-19 10:54:00,
2013-04-19 06:59:00,40.0,40.0,29.67,WNW,292,5.0,20.0,100,0.00,,,0.77,Weather View 32 v70,2013-04-19 10:59:00,
2013-04-19 07:09:00,40.0,40.0,29.67,West,270,4.0,20.0,100,0.00,,,0.77,Weather View 32 v70,2013-04-19 11:09:00,
2013-04-19 07:14:00,40.0,40.0,29.67,West,270,5.0,20.0,100,0.00,,,0.77,Weather View 32 v70,2013-04-19 11:14:00,
2013-04-19 07:19:00,40.0,39.2,29.67,West,270,6.0,20.0,97,0.00,,,0.77,Weather View 32 v70,2013-04-19 11:19:00,
2013-04-19 07:24:00,40.0,39.2,29.67,West,270,6.0,20.0,97,0.00,,,0.77,Weather View 32 v70,2013-04-19 11:24:00,
2013-04-19 07:34:00,40.0,39.7,29.68,West,270,6.0,15.0,99,0.00,,,0.77,Weather View 32 v70,2013-04-19 11:34:00,
2013-04-19 07:39:00,40.0,40.0,29.69,WSW,247,3.0,13.0,100,0.00,,,0.77,Weather View 32 v70,2013-04-19 11:39:00,
2013-04-19 07:45:00,40.0,40.0,29.69,NW,315,2.0,13.0,100,0.00,,,0.77,Weather View 32 v70,2013-04-19 11:45:00,
2013-04-19 07:54:00,40.0,39.2,29.69,West,270,7.0,13.0,97,0.00,,,0.77,Weather View 32 v70,2013-04-19 11:54:00,
2013-04-19 07:59:00,40.0,39.7,29.69,West,270,6.0,15.0,99,0.00,,,0.77,Weather View 32 v70,2013-04-19 11:59:00,
2013-04-19 08:04:00,40.0,40.0,29.69,West,270,5.0,15.0,100,0.00,,,0.77,Weather View 32 v70,2013-04-19 12:04:00,
2013-04-19 08:14:00,40.0,38.4,29.70,SW,225,2.0,15.0,94,0.00,,,0.77,Weather View 32 v70,2013-04-19 12:14:00,
2013-04-19 08:19:00,40.0,38.7,29.70,West,270,3.0,15.0,95,0.00,,,0.77,Weather View 32 v70,2013-04-19 12:19:00,
2013-04-19 08:24:00,40.0,38.4,29.70,West,270,2.0,15.0,94,0.00,,,0.77,Weather View 32 v70,2013-04-19 12:24:00,
2013-04-19 08:29:00,40.0,38.1,29.71,WNW,292,3.0,15.0,93,0.00,,,0.77,Weather View 32 v70,2013-04-19 12:29:00,
2013-04-19 08:34:00,40.0,40.0,29.71,SW,225,5.0,15.0,100,0.00,,,0.77,Weather View 32 v70,2013-04-19 12:34:00,
2013-04-19 08:44:00,39.0,38.0,29.71,WSW,247,7.0,15.0,96,0.00,,,0.77,Weather View 32 v70,2013-04-19 12:44:00,
2013-04-19 08:49:00,39.0,38.5,29.71,SW,225,6.0,15.0,98,0.00,,,0.77,Weather View 32 v70,2013-04-19 12:49:00,
2013-04-19 08:54:00,39.0,38.7,29.71,SW,225,5.0,15.0,99,0.00,,,0.77,Weather View 32 v70,2013-04-19 12:54:00,
2013-04-19 09:04:00,39.0,39.0,29.72,West,270,5.0,17.0,100,0.00,,,0.77,Weather View 32 v70,2013-04-19 13:04:00,
2013-04-19 09:09:00,39.0,38.7,29.72,SW,225,4.0,17.0,99,0.00,,,0.77,Weather View 32 v70,2013-04-19 13:09:00,
2013-04-19 09:14:00,39.0,38.7,29.73,WSW,247,8.0,17.0,99,0.00,,,0.77,Weather View 32 v70,2013-04-19 13:14:00,
2013-04-19 09:19:00,39.0,36.6,29.73,West,270,7.0,17.0,91,0.00,,,0.77,Weather View 32 v70,2013-04-19 13:19:00,
2013-04-19 09:24:00,39.0,37.4,29.73,WSW,247,4.0,17.0,94,0.00,,,0.77,Weather View 32 v70,2013-04-19 13:24:00,
2013-04-19 09:34:00,39.0,36.0,29.74,WNW,292,4.0,17.0,89,0.00,,,0.77,Weather View 32 v70,2013-04-19 13:34:00,
2013-04-19 09:39:00,40.0,36.7,29.74,West,270,6.0,17.0,88,0.00,,,0.77,Weather View 32 v70,2013-04-19 13:39:00,
2013-04-19 09:44:00,40.0,36.1,29.74,West,270,7.0,17.0,86,0.00,,,0.77,Weather View 32 v70,2013-04-19 13:44:00,
2013-04-19 09:54:00,40.0,34.6,29.74,West,270,7.0,17.0,81,0.00,,,0.77,Weather View 32 v70,2013-04-19 13:54:00,
2013-04-19 09:59:00,40.0,35.2,29.74,West,270,7.0,17.0,83,0.00,,,0.77,Weather View 32 v70,2013-04-19 13:59:00,
2013-04-19 10:04:00,40.0,35.2,29.75,West,270,0.0,16.0,83,0.00,,,0.77,Weather View 32 v70,2013-04-19 14:04:00,
2013-04-19 10:09:00,40.0,35.9,29.75,West,270,7.0,16.0,85,0.00,,,0.77,Weather View 32 v70,2013-04-19 14:09:00,
2013-04-19 10:19:00,40.0,35.6,29.75,WSW,247,6.0,16.0,84,0.00,,,0.77,Weather View 32 v70,2013-04-19 14:19:00,
2013-04-19 10:24:00,40.0,35.9,29.75,SW,225,6.0,15.0,85,0.00,,,0.77,Weather View 32 v70,2013-04-19 14:24:00,
2013-04-19 10:29:00,40.0,34.9,29.76,West,270,4.0,15.0,82,0.00,,,0.77,Weather View 32 v70,2013-04-19 14:29:00,
2013-04-19 10:39:00,40.0,35.9,29.76,WSW,247,7.0,16.0,85,0.00,,,0.77,Weather View 32 v70,2013-04-19 14:39:00,
2013-04-19 10:44:00,40.0,34.3,29.76,NW,315,8.0,16.0,80,0.00,,,0.77,Weather View 32 v70,2013-04-19 14:44:00,
2013-04-19 10:54:00,40.0,34.3,29.76,South,180,9.0,16.0,80,0.00,,,0.77,Weather View 32 v70,2013-04-19 14:54:00,
2013-04-19 10:59:00,40.0,32.7,29.76,WSW,247,6.0,16.0,75,0.00,,,0.77,Weather View 32 v70,2013-04-19 14:59:00,
2013-04-19 11:04:00,41.0,34.0,29.76,WNW,292,8.0,16.0,76,0.00,,,0.77,Weather View 32 v70,2013-04-19 15:04:00,
2013-04-19 11:09:00,41.0,34.3,29.76,WNW,292,2.0,16.0,77,0.00,,,0.77,Weather View 32 v70,2013-04-19 15:09:00,
2013-04-19 11:19:00,41.0,34.7,29.76,WSW,247,3.0,16.0,78,0.00,,,0.77,Weather View 32 v70,2013-04-19 15:19:00,
2013-04-19 11:24:00,41.0,34.3,29.77,SW,225,5.0,16.0,77,0.00,,,0.77,Weather View 32 v70,2013-04-19 15:24:00,
2013-04-19 11:29:00,41.0,34.0,29.77,SW,225,7.0,18.0,76,0.00,,,0.77,Weather View 32 v70,2013-04-19 15:29:00,
2013-04-19 11:34:00,41.0,33.7,29.77,WNW,292,9.0,18.0,75,0.00,,,0.77,Weather View 32 v70,2013-04-19 15:34:00,
2013-04-19 11:44:00,41.0,33.7,29.78,SSW,202,5.0,18.0,75,0.00,,,0.77,Weather View 32 v70,2013-04-19 15:44:00,
2013-04-19 11:49:00,41.0,33.7,29.78,West,270,5.0,18.0,75,0.00,,,0.77,Weather View 32 v70,2013-04-19 15:49:00,
2013-04-19 11:54:00,41.0,33.3,29.78,SSW,202,4.0,18.0,74,0.00,,,0.77,Weather View 32 v70,2013-04-19 15:54:00,
2013-04-19 11:59:00,41.0,33.0,29.78,West,270,6.0,18.0,73,0.00,,,0.77,Weather View 32 v70,2013-04-19 15:59:00,
2013-04-19 12:04:00,41.0,32.7,29.78,WNW,292,9.0,18.0,72,0.00,,,0.77,Weather View 32 v70,2013-04-19 16:04:00,
2013-04-19 12:09:00,41.0,33.3,29.78,West,270,5.0,18.0,74,0.00,,,0.77,Weather View 32 v70,2013-04-19 16:09:00,
2013-04-19 12:19:00,42.0,34.6,29.78,West,270,3.0,18.0,75,0.00,,,0.77,Weather View 32 v70,2013-04-19 16:19:00,
2013-04-19 12:24:00,42.0,35.0,29.78,WNW,292,2.0,18.0,76,0.00,,,0.77,Weather View 32 v70,2013-04-19 16:24:00,
2013-04-19 12:29:00,42.0,34.0,29.78,SW,225,4.0,15.0,73,0.00,,,0.77,Weather View 32 v70,2013-04-19 16:29:00,
2013-04-19 12:39:00,43.0,36.6,29.79,WSW,247,2.0,14.0,78,0.00,,,0.77,Weather View 32 v70,2013-04-19 16:39:00,
2013-04-19 12:44:00,43.0,35.3,29.79,West,270,6.0,13.0,74,0.00,,,0.77,Weather View 32 v70,2013-04-19 16:44:00,
2013-04-19 12:54:00,43.0,35.6,29.79,South,180,7.0,13.0,75,0.00,,,0.77,Weather View 32 v70,2013-04-19 16:54:00,
2013-04-19 12:59:00,43.0,35.6,29.79,South,180,0.0,13.0,75,0.00,,,0.77,Weather View 32 v70,2013-04-19 16:59:00,
2013-04-19 13:04:00,43.0,34.6,29.79,SW,225,5.0,13.0,72,0.00,,,0.77,Weather View 32 v70,2013-04-19 17:04:00,
2013-04-19 13:09:00,43.0,34.6,29.79,West,270,3.0,13.0,72,0.00,,,0.77,Weather View 32 v70,2013-04-19 17:09:00,
2013-04-19 13:19:00,43.0,34.6,29.79,West,270,5.0,13.0,72,0.00,,,0.77,Weather View 32 v70,2013-04-19 17:19:00,
2013-04-19 13:24:00,43.0,34.2,29.79,SW,225,6.0,13.0,71,0.00,,,0.77,Weather View 32 v70,2013-04-19 17:24:00,
2013-04-19 13:34:00,42.0,34.6,29.80,West,270,5.0,13.0,75,0.00,,,0.77,Weather View 32 v70,2013-04-19 17:34:00,
2013-04-19 13:39:00,42.0,34.6,29.80,WSW,247,7.0,13.0,75,0.00,,,0.77,Weather View 32 v70,2013-04-19 17:39:00,
2013-04-19 13:44:00,42.0,34.3,29.80,WSW,247,6.0,17.0,74,0.00,,,0.77,Weather View 32 v70,2013-04-19 17:44:00,
2013-04-19 13:49:00,42.0,35.6,29.81,West,270,7.0,17.0,78,0.00,,,0.77,Weather View 32 v70,2013-04-19 17:49:00,
2013-04-19 13:59:00,42.0,34.3,29.81,West,270,7.0,17.0,74,0.00,,,0.77,Weather View 32 v70,2013-04-19 17:59:00,
2013-04-19 14:04:00,42.0,33.3,29.81,West,270,6.0,17.0,71,0.00,,,0.77,Weather View 32 v70,2013-04-19 18:04:00,
2013-04-19 14:14:00,42.0,34.0,29.81,West,270,9.0,17.0,73,0.00,,,0.77,Weather View 32 v70,2013-04-19 18:14:00,
2013-04-19 14:19:00,42.0,33.6,29.81,WSW,247,3.0,17.0,72,0.00,,,0.77,Weather View 32 v70,2013-04-19 18:19:00,
2013-04-19 14:24:00,42.0,34.0,29.81,WNW,292,5.0,17.0,73,0.00,,,0.77,Weather View 32 v70,2013-04-19 18:24:00,
2013-04-19 14:34:00,43.0,33.9,29.81,WSW,247,4.0,17.0,70,0.00,,,0.77,Weather View 32 v70,2013-04-19 18:34:00,
2013-04-19 14:39:00,43.0,33.1,29.81,West,270,6.0,17.0,68,0.00,,,0.77,Weather View 32 v70,2013-04-19 18:39:00,
2013-04-19 14:44:00,43.0,33.5,29.81,NW,315,1.0,16.0,69,0.00,,,0.77,Weather View 32 v70,2013-04-19 18:44:00,
2013-04-19 14:49:00,43.0,33.1,29.82,West,270,8.0,16.0,68,0.00,,,0.77,Weather View 32 v70,2013-04-19 18:49:00,
2013-04-19 14:54:00,43.0,32.8,29.81,West,270,6.0,16.0,67,0.00,,,0.77,Weather View 32 v70,2013-04-19 18:54:00,
2013-04-19 14:59:00,43.0,32.4,29.81,West,270,6.0,16.0,66,0.00,,,0.77,Weather View 32 v70,2013-04-19 18:59:00,
2013-04-19 15:09:00,43.0,32.8,29.81,West,270,4.0,16.0,67,0.00,,,0.77,Weather View 32 v70,2013-04-19 19:09:00,
2013-04-19 15:14:00,43.0,32.4,29.81,West,270,6.0,16.0,66,0.00,,,0.77,Weather View 32 v70,2013-04-19 19:14:00,
2013-04-19 15:19:00,42.0,31.1,29.82,SW,225,10.0,16.0,65,0.00,,,0.77,Weather View 32 v70,2013-04-19 19:19:00,
2013-04-19 15:24:00,42.0,31.5,29.82,West,270,6.0,16.0,66,0.00,,,0.77,Weather View 32 v70,2013-04-19 19:24:00,
2013-04-19 15:29:00,42.0,32.2,29.82,West,270,9.0,16.0,68,0.00,,,0.77,Weather View 32 v70,2013-04-19 19:29:00,
2013-04-19 15:34:00,42.0,31.5,29.82,SW,225,6.0,16.0,66,0.00,,,0.77,Weather View 32 v70,2013-04-19 19:34:00,
2013-04-19 15:39:00,43.0,33.1,29.81,SW,225,4.0,19.0,68,0.00,,,0.77,Weather View 32 v70,2013-04-19 19:39:00,
2013-04-19 15:49:00,43.0,33.1,29.81,West,270,6.0,19.0,68,0.00,,,0.77,Weather View 32 v70,2013-04-19 19:49:00,
2013-04-19 15:54:00,43.0,32.4,29.81,SW,225,5.0,19.0,66,0.00,,,0.77,Weather View 32 v70,2013-04-19 19:54:00,
2013-04-19 15:59:00,43.0,33.1,29.81,West,270,8.0,19.0,68,0.00,,,0.77,Weather View 32 v70,2013-04-19 19:59:00,
2013-04-19 16:04:00,43.0,33.5,29.81,WNW,292,9.0,19.0,69,0.00,,,0.77,Weather View 32 v70,2013-04-19 20:04:00,
2013-04-19 16:09:00,43.0,33.9,29.81,West,270,9.0,19.0,70,0.00,,,0.77,Weather View 32 v70,2013-04-19 20:09:00,
2013-04-19 16:14:00,42.0,32.9,29.81,West,270,10.0,19.0,70,0.00,,,0.77,Weather View 32 v70,2013-04-19 20:14:00,
2013-04-19 16:24:00,42.0,34.0,29.81,WNW,292,2.0,19.0,73,0.00,,,0.77,Weather View 32 v70,2013-04-19 20:24:00,
2013-04-19 16:29:00,42.0,33.3,29.82,SW,225,4.0,19.0,71,0.00,,,0.77,Weather View 32 v70,2013-04-19 20:29:00,
2013-04-19 16:34:00,42.0,33.3,29.82,West,270,6.0,19.0,71,0.00,,,0.77,Weather View 32 v70,2013-04-19 20:34:00,
2013-04-19 16:39:00,42.0,33.3,29.82,SSW,202,6.0,14.0,71,0.00,,,0.77,Weather View 32 v70,2013-04-19 20:39:00,
2013-04-19 16:44:00,42.0,34.0,29.83,West,270,3.0,14.0,73,0.00,,,0.77,Weather View 32 v70,2013-04-19 20:44:00,
2013-04-19 16:50:00,42.0,33.3,29.83,WNW,292,6.0,14.0,71,0.00,,,0.77,Weather View 32 v70,2013-04-19 20:50:00,
2013-04-19 16:59:00,42.0,33.3,29.83,West,270,9.0,14.0,71,0.00,,,0.77,Weather View 32 v70,2013-04-19 20:59:00,
2013-04-19 17:04:00,42.0,32.6,29.84,WSW,247,8.0,14.0,69,0.00,,,0.77,Weather View 32 v70,2013-04-19 21:04:00,
2013-04-19 17:14:00,42.0,33.6,29.85,West,270,10.0,14.0,72,0.00,,,0.77,Weather View 32 v70,2013-04-19 21:14:00,
2013-04-19 17:19:00,42.0,33.6,29.85,West,270,7.0,14.0,72,0.00,,,0.77,Weather View 32 v70,2013-04-19 21:19:00,
2013-04-19 17:24:00,42.0,33.3,29.85,West,270,8.0,14.0,71,0.00,,,0.77,Weather View 32 v70,2013-04-19 21:24:00,
2013-04-19 17:29:00,42.0,32.6,29.85,WSW,247,6.0,14.0,69,0.00,,,0.77,Weather View 32 v70,2013-04-19 21:29:00,
2013-04-19 17:34:00,42.0,32.2,29.85,SSW,202,10.0,14.0,68,0.00,,,0.77,Weather View 32 v70,2013-04-19 21:34:00,
2013-04-19 17:39:00,42.0,32.9,29.86,SW,225,5.0,14.0,70,0.00,,,0.77,Weather View 32 v70,2013-04-19 21:39:00,
2013-04-19 17:49:00,42.0,32.9,29.86,West,270,3.0,15.0,70,0.00,,,0.77,Weather View 32 v70,2013-04-19 21:49:00,
2013-04-19 17:54:00,42.0,32.6,29.86,WNW,292,6.0,15.0,69,0.00,,,0.77,Weather View 32 v70,2013-04-19 21:54:00,
2013-04-19 17:59:00,43.0,33.1,29.87,WNW,292,8.0,15.0,68,0.00,,,0.77,Weather View 32 v70,2013-04-19 21:59:00,
2013-04-19 18:04:00,43.0,32.8,29.86,WSW,247,6.0,15.0,67,0.00,,,0.77,Weather View 32 v70,2013-04-19 22:04:00,
2013-04-19 18:09:00,43.0,32.0,29.86,West,270,4.0,15.0,65,0.00,,,0.77,Weather View 32 v70,2013-04-19 22:09:00,
2013-04-19 18:14:00,43.0,31.6,29.86,WSW,247,8.0,15.0,64,0.00,,,0.77,Weather View 32 v70,2013-04-19 22:14:00,
2013-04-19 18:24:00,43.0,31.6,29.87,WSW,247,3.0,16.0,64,0.00,,,0.77,Weather View 32 v70,2013-04-19 22:24:00,
2013-04-19 18:29:00,43.0,32.0,29.87,West,270,8.0,16.0,65,0.00,,,0.77,Weather View 32 v70,2013-04-19 22:29:00,
2013-04-19 18:34:00,43.0,31.2,29.87,SSW,202,7.0,16.0,63,0.00,,,0.77,Weather View 32 v70,2013-04-19 22:34:00,
2013-04-19 18:39:00,43.0,30.9,29.88,WSW,247,6.0,16.0,62,0.00,,,0.77,Weather View 32 v70,2013-04-19 22:39:00,
2013-04-19 18:44:00,43.0,31.6,29.87,WSW,247,3.0,16.0,64,0.00,,,0.77,Weather View 32 v70,2013-04-19 22:44:00,
2013-04-19 18:49:00,43.0,32.4,29.88,SW,225,3.0,16.0,66,0.00,,,0.77,Weather View 32 v70,2013-04-19 22:49:00,
2013-04-19 18:59:00,43.0,32.0,29.88,West,270,7.0,16.0,65,0.00,,,0.77,Weather View 32 v70,2013-04-19 22:59:00,
2013-04-19 19:04:00,43.0,32.0,29.88,SW,225,4.0,16.0,65,0.00,,,0.77,Weather View 32 v70,2013-04-19 23:04:00,
2013-04-19 19:09:00,43.0,32.4,29.88,West,270,9.0,16.0,66,0.00,,,0.77,Weather View 32 v70,2013-04-19 23:09:00,
2013-04-19 19:19:00,43.0,32.8,29.88,SW,225,4.0,14.0,67,0.00,,,0.77,Weather View 32 v70,2013-04-19 23:19:00,
2013-04-19 19:24:00,43.0,32.8,29.89,West,270,4.0,14.0,67,0.00,,,0.77,Weather View 32 v70,2013-04-19 23:24:00,
2013-04-19 19:29:00,43.0,32.8,29.89,West,270,5.0,14.0,67,0.00,,,0.77,Weather View 32 v70,2013-04-19 23:29:00,
2013-04-19 19:34:00,43.0,32.8,29.89,West,270,7.0,14.0,67,0.00,,,0.77,Weather View 32 v70,2013-04-19 23:34:00,
2013-04-19 19:44:00,43.0,33.5,29.89,SW,225,6.0,15.0,69,0.00,,,0.77,Weather View 32 v70,2013-04-19 23:44:00,
2013-04-19 19:49:00,43.0,33.1,29.89,West,270,7.0,15.0,68,0.00,,,0.77,Weather View 32 v70,2013-04-19 23:49:00,
2013-04-19 19:54:00,43.0,33.1,29.89,West,270,6.0,15.0,68,0.00,,,0.77,Weather View 32 v70,2013-04-19 23:54:00,
2013-04-19 19:59:00,43.0,33.5,29.89,West,270,6.0,15.0,69,0.00,,,0.77,Weather View 32 v70,2013-04-19 23:59:00,
2013-04-19 20:04:00,43.0,33.9,29.90,West,270,6.0,15.0,70,0.00,,,0.77,Weather View 32 v70,2013-04-20 00:04:00,
2013-04-19 20:14:00,42.0,35.0,29.91,West,270,7.0,15.0,76,0.00,,,0.77,Weather View 32 v70,2013-04-20 00:14:00,
2013-04-19 20:19:00,42.0,36.3,29.91,NW,315,2.0,15.0,80,0.00,,,0.77,Weather View 32 v70,2013-04-20 00:19:00,
2013-04-19 20:24:00,41.0,35.6,29.91,WNW,292,0.0,15.0,81,0.00,,,0.77,Weather View 32 v70,2013-04-20 00:24:00,
2013-04-19 20:29:00,41.0,35.9,29.91,West,270,5.0,15.0,82,0.00,,,0.77,Weather View 32 v70,2013-04-20 00:29:00,
2013-04-19 20:39:00,41.0,35.3,29.91,WNW,292,3.0,12.0,80,0.00,,,0.77,Weather View 32 v70,2013-04-20 00:39:00,
2013-04-19 20:44:00,41.0,35.6,29.91,WNW,292,3.0,12.0,81,0.00,,,0.77,Weather View 32 v70,2013-04-20 00:44:00,
2013-04-19 20:52:00,41.0,35.9,29.91,WNW,292,0.0,12.0,82,0.00,,,0.77,Weather View 32 v70,2013-04-20 00:52:00,
2013-04-19 20:59:00,41.0,36.2,29.91,WNW,292,0.0,12.0,83,0.00,,,0.77,Weather View 32 v70,2013-04-20 00:59:00,
2013-04-19 21:04:00,40.0,35.6,29.91,WNW,292,0.0,12.0,84,0.00,,,0.77,Weather View 32 v70,2013-04-20 01:04:00,
2013-04-19 21:14:00,40.0,35.6,29.92,WNW,292,0.0,11.0,84,0.00,,,0.77,Weather View 32 v70,2013-04-20 01:14:00,
2013-04-19 21:19:00,40.0,36.4,29.92,WNW,292,3.0,9.0,87,0.00,,,0.77,Weather View 32 v70,2013-04-20 01:19:00,
2013-04-19 21:24:00,41.0,37.1,29.93,WNW,292,2.0,9.0,86,0.00,,,0.77,Weather View 32 v70,2013-04-20 01:24:00,
2013-04-19 21:34:00,40.0,35.9,29.93,WNW,292,0.0,9.0,85,0.00,,,0.77,Weather View 32 v70,2013-04-20 01:34:00,
2013-04-19 21:39:00,40.0,35.9,29.92,WNW,292,0.0,6.0,85,0.00,,,0.77,Weather View 32 v70,2013-04-20 01:39:00,
2013-04-19 21:49:00,39.0,36.0,29.93,WNW,292,2.0,4.0,89,0.00,,,0.77,Weather View 32 v70,2013-04-20 01:49:00,
2013-04-19 21:54:00,40.0,36.1,29.93,WNW,292,3.0,5.0,86,0.00,,,0.77,Weather View 32 v70,2013-04-20 01:54:00,
2013-04-19 21:59:00,41.0,37.1,29.94,WNW,292,0.0,5.0,86,0.00,,,0.77,Weather View 32 v70,2013-04-20 01:59:00,
2013-04-19 22:09:00,41.0,37.7,29.95,WNW,292,3.0,10.0,88,0.00,,,0.77,Weather View 32 v70,2013-04-20 02:09:00,
2013-04-19 22:14:00,41.0,37.7,29.95,WNW,292,4.0,10.0,88,0.00,,,0.77,Weather View 32 v70,2013-04-20 02:14:00,
2013-04-19 22:19:00,41.0,37.4,29.95,West,270,2.0,10.0,87,0.00,,,0.77,Weather View 32 v70,2013-04-20 02:19:00,
2013-04-19 22:24:00,41.0,37.7,29.95,WNW,292,3.0,10.0,88,0.00,,,0.77,Weather View 32 v70,2013-04-20 02:24:00,
2013-04-19 22:34:00,41.0,37.7,29.95,West,270,3.0,10.0,88,0.00,,,0.77,Weather View 32 v70,2013-04-20 02:34:00,
2013-04-19 22:39:00,41.0,37.7,29.96,West,270,1.0,10.0,88,0.00,,,0.77,Weather View 32 v70,2013-04-20 02:39:00,
2013-04-19 22:44:00,41.0,38.0,29.96,West,270,1.0,10.0,89,0.00,,,0.77,Weather View 32 v70,2013-04-20 02:44:00,
2013-04-19 22:49:00,40.0,37.0,29.96,West,270,1.0,10.0,89,0.00,,,0.77,Weather View 32 v70,2013-04-20 02:49:00,
2013-04-19 23:00:00,40.0,37.3,29.96,West,270,1.0,10.0,90,0.00,,,0.77,Weather View 32 v70,2013-04-20 03:00:00,
2013-04-19 23:05:00,40.0,37.3,29.96,West,270,1.0,9.0,90,0.00,,,0.77,Weather View 32 v70,2013-04-20 03:05:00,
2013-04-19 23:15:00,40.0,37.6,29.96,South,180,1.0,7.0,91,0.00,,,0.77,Weather View 32 v70,2013-04-20 03:15:00,
2013-04-19 23:20:00,40.0,37.9,29.96,NW,315,0.0,7.0,92,0.00,,,0.77,Weather View 32 v70,2013-04-20 03:20:00,
2013-04-19 23:30:00,40.0,38.1,29.96,SW,225,2.0,7.0,93,0.00,,,0.77,Weather View 32 v70,2013-04-20 03:30:00,
2013-04-19 23:35:00,39.0,37.4,29.96,SW,225,2.0,7.0,94,0.00,,,0.77,Weather View 32 v70,2013-04-20 03:35:00,
2013-04-19 23:45:00,39.0,37.7,29.96,SW,225,1.0,7.0,95,0.00,,,0.77,Weather View 32 v70,2013-04-20 03:45:00,
2013-04-19 23:50:00,39.0,37.7,29.96,SW,225,0.0,7.0,95,0.00,,,0.77,Weather View 32 v70,2013-04-20 03:50:00,